STARLINK-5691, 55478

Orbit data source: Space-Track

STARLINK-5691, 55478 is a payload satellite owned by SpaceX/Seattle (US) in LEO that was launched on Thu, 02 Feb 2023 UTC via an FALCON 9 launch vehicle from the Air Force Eastern Test Range (AFETR). Payload-class satellites include a variety of spacecraft equipped with specific instruments for various scientific and technological missions. These include communications satellites like Starlink; space stations such as the ISS; scientific satellites like the Hubble; Earth observation satellites from companies like Planet Labs, Umbra, and HawkEye 360; GPS; miniature CubeSats for education and research; and military/defense satellites.

Loading next visibility...
Identifier
55478, 2023-015AF
Orbit
LEO
Country
Flag of USUS
Related business
Manufacturer
SpaceX/Seattle
Mission
Operational Commercial Communications
Bus & Motor
STARLINK, Unknown motor
Mass
305 kg wet, ~290 kg dry
Launch date (UTC)
2023-02-02 (3 years ago)
Launch vehicle
FALCON 9
Launch site
Air Force Eastern Test Range (AFETR)
Object type
Payload
Rocket body
Debris
Shape & HBR
Box + 1 Pan, 10.1 m
Radar Cross Section
13.562 m², Large (>1 m²)

Expand to show TLE details & history
Last TLE update: 20 hours ago

TLE from 20 hours ago
0 STARLINK-5691
1 55478U 23015AF  25352.49081940 -.00000211  00000-0 -53494-6 0  9999
2 55478  43.0020  34.7004 0000901 241.8357 118.2394 15.02536745158682
Epoch: 2025-12-18T11:46Z
TLE epoch observation values (Epoch: 2025-12-18T11:46:46.796Z)
Latitude
-0.00003°
Longitude
130.65981°
Altitude
559.151 km
Speed
7.584 km/s
True Right ascension
02h 18m 48s
True Declination
0° 00' 00"
Sunlit
Object was in full shadow at epoch
Visualization orbit readout
Latitude
Unknown
Longitude
Unknown
Altitude
Unknown
Speed
Unknown
Apparent Right ascension
Unknown
Apparent Declination
Unknown
Sunlit
N/A
Visualization observer readout
Local Sidereal Time
06:16:07
Azimuth
Unknown
Elevation
Unknown
Doppler factor
Unknown
Orbital elements
Apogee altitude
561.626 km
Perigee altitude
560.376 km
Semi-major axis
6,939.138 km
Eccentricity
0.00009
Inclination
43.002°
RAAN
34.7004°
Arg. of periapsis
241.8357°
True anomaly
118.2485°
Mean anomaly
118.2394°
Eccentric anomaly
118.24395°
Mean motion
3.75478 °/min
Orbital period
95.88 mins
BSTAR
-5.3494e-7
Loading maneuver chart data...
Computing Atmospheric mass density...
Loading historical data...
Loading historical data...
Loading historical data...
Loading historical data...
Loading historical data...
Loading historical data...
Loading historical data...

Documentation

Showing up to 5 results
|